Home   Weather   Male   Past weeks

Flag for Maldives Past Weather in Male, Maldives — Yesterday and Last 2 Weeks

Now
86 °F

Partly sunny.


Feels Like: 95 °F
Forecast: 82 / 86 °F
Wind: 17 mph from East

Location: Male Airport

Current Time: Jan 23, 2017 at 6:09:38 pm

Latest Report: Jan 23, 2017 at 5:00 pm


Visibility: N/A

Pressure: 29.83 "Hg

Humidity: 70%

Dew Point: 75 °F

Location of MaleLocation

Past Weather in Male — Graph

°F

Male Temperature Yesterday

Maximum temperature yesterday: 88 °F (at 2:00 pm)
Minimum temperature yesterday: 81 °F (at 5:00 am)
Average temperature yesterday: 84 °F

High & Low Weather Summary for the Past Weeks

 TemperatureHumidityPressure
High88 °F (Jan 14, 12:00 pm)84% (Jan 9, 5:00 am)29.98 "Hg (Jan 9, 5:00 am)
Low79 °F (Jan 10, 4:00 am)59% (Jan 14, 12:00 pm)29.74 "Hg (Jan 8, 4:00 pm)
Average83 °F73%29.86 "Hg
* Reported Jan 8 4:00 pm — Jan 23 4:00 pm, Male, Weather by CustomWeather, © 2017

Note: Actual official high and low records may vary slightly from our data, if they occured in-between our weather recording intervals... More about our weather records

Advertising

Male Weather History for the Previous 24 Hours

Scroll right to see more
 ConditionsComfort  
Time TempWeatherWind HumidityBarometerVisibility
4:00 pm
Mon, Jan 23
86 °FPartly sunny.18 mph75%29.83 "HgN/A
3:00 pm86 °FBroken clouds.16 mph75%29.83 "HgN/A
2:00 pm86 °FPartly sunny.16 mph75%29.86 "HgN/A
1:00 pm86 °FBroken clouds.16 mph75%29.89 "HgN/A
12:00 pm88 °FPartly sunny.14 mph70%29.89 "HgN/A
11:00 am86 °FPartly sunny.13 mph75%29.92 "HgN/A
8:00 am84 °FBroken clouds.12 mph74%29.95 "HgN/A
7:00 am82 °FBroken clouds.13 mph79%29.92 "HgN/A
6:00 am82 °FPassing clouds.13 mph84%29.92 "HgN/A
5:00 am82 °FPassing clouds.15 mph70%29.89 "HgN/A
4:00 am82 °FPassing clouds.15 mph79%29.89 "HgN/A
3:00 am82 °FPassing clouds.15 mph84%29.89 "HgN/A
2:00 am82 °FPassing clouds.9 mph84%29.89 "HgN/A
1:00 am82 °FPassing clouds.13 mph84%29.89 "HgN/A
12:00 am82 °FPassing clouds.9 mph84%29.95 "HgN/A
11:00 pm
Sun, Jan 22
82 °FPartly cloudy.6 mph84%29.98 "HgN/A
10:00 pm82 °FPartly cloudy.12 mph84%29.98 "HgN/A
9:00 pm82 °FPartly cloudy.7 mph84%29.95 "HgN/A
8:00 pm82 °FPassing clouds.6 mph74%29.92 "HgN/A
7:00 pm84 °FPassing clouds.6 mph74%29.89 "HgN/A
6:00 pm84 °FPartly sunny.6 mph74%29.86 "HgN/A
Weather by CustomWeather, © 2017

See weather overviewHow to use our weather pages